Flag Weather past 2 weeks in Pocatello, Idaho, U.S.A.

Now
51 °F

Clear.


Feels Like: 49 °F
Forecast: 35 / 49 °F
Wind: 7 mph from South

Location: Pocatello Regional Airport

Current Time: Nov 27, 2014 at 6:41:19 AM

Latest Report: Nov 27, 2014 at 5:53 AM


Visibility: 10 mi

Pressure: 30.14 "Hg

Humidity: 38%

Dew point: 26 °F

Location of PocatelloLocation

Historic Weather in Pocatello — Graph

°F

Pocatello temperature yesterday

Maximum temperature yesterday: 54 °F (at 1:53 PM)
Minimum temperature yesterday: 44 °F (at 2:53 AM)
Average temperature yesterday: 48 °F

Past Weeks' High & Low Weather Summary

 TemperatureHumidityPressure
High54 °F (Nov 26, 1:53 PM)100% (Nov 14, 8:53 AM)30.76 "Hg (Nov 14, 8:53 AM)
Low-1 °F (Nov 17, 6:53 AM)31% (Nov 12, 1:53 PM)29.67 "Hg (Nov 22, 10:53 AM)
Average26 °F77%30.27 "Hg
* Reported Nov 12 4:53 AM — Nov 27 4:53 AM, Pocatello, Weather by CustomWeather, © 2014

Note: Actual official high and low records may vary slightly from our data, if they occured in-between our weather recording intervals... More about our weather records

Advertising

Pocatello weather history for previous 24 hours

 ConditionsComfort  
Time TempWeatherWind HumidityBarometerVisibility
4:53 AM
Nov 27
50 °FClear.12 mph41%30.16 "Hg10 mi
3:53 AM48 °FClear.5 mph44%30.17 "Hg10 mi
2:53 AM52 °FClear.15 mph37%30.18 "Hg10 mi
1:53 AM51 °FClear.15 mph39%30.18 "Hg10 mi
12:53 AM50 °FClear.15 mph43%30.19 "Hg10 mi
11:53 PM
Nov 26
50 °FClear.9 mph43%30.21 "Hg10 mi
10:53 PM51 °FClear.12 mph42%30.21 "Hg10 mi
9:53 PM49 °FClear.9 mph48%30.23 "Hg10 mi
8:53 PM49 °FClear.10 mph50%30.25 "Hg10 mi
7:53 PM48 °FClear.12 mph56%30.26 "Hg10 mi
6:53 PM44 °FClear.9 mph68%30.28 "Hg10 mi
5:53 PM48 °FSunny.12 mph59%30.28 "Hg10 mi
4:53 PM49 °FSunny.10 mph59%30.27 "Hg10 mi
3:53 PM53 °FPassing clouds.15 mph51%30.26 "Hg10 mi
2:53 PM53 °FPassing clouds.15 mph52%30.27 "Hg10 mi
1:53 PM54 °FPassing clouds.20 mph51%30.27 "Hg10 mi
12:53 PM53 °FPassing clouds.20 mph52%30.29 "Hg10 mi
11:53 AM53 °FScattered clouds.31 mph52%30.29 "Hg10 mi
10:53 AM51 °FPassing clouds.28 mph59%30.30 "Hg10 mi
9:53 AM49 °FSunny.22 mph66%30.31 "Hg10 mi
8:53 AM45 °FScattered clouds.22 mph74%30.29 "Hg10 mi
7:53 AM45 °FPassing clouds.25 mph74%30.29 "Hg10 mi
6:53 AM45 °FClear.22 mph74%30.28 "Hg10 mi
Weather by CustomWeather, © 2014

See weather overviewHow to use our weather pages